Find Starlink 38011

NORAD ID: 100412 Int'l Des: 2026-192 Owner: SPXS Country: US Constellation: starlink operational

当前视图

正在加载3D地球...

About Starlink 38011

Starlink 38011 (NORAD 100412) is a starlink constellation satellite launched Aug 21, 2026 by SPXS of US. with a mass of 575.00 kg.

即将过境

Passes for default location (London). Set your location on the main map for personalized predictions.

高度历史

Loading altitude history...

两行轨道根数

1 A0412U 26192J 26262.92942969 .00036319 00000-0 65725-3 0 9995
2 A0412 53.1599 308.5829 0001589 68.1928 291.9250 15.49342767 5824
Epoch: Sep 19, 2026 • Age: 17 hours

当前状态

高度 437.9 km
远地点 / 近地点 N/A
速度 7.65 km/s
星下点 -52.92°S, 0.75°E
发射日期 Aug 21, 2026
运行时间 29 days
类型 internet

技术详情

分类 Payload
质量 575.00 kg
干质量 530.00 kg
长度 0.30 m
跨度 29.00 m
形状 ? Box + pan
制造商 SPXS
平台类型 Starlink V2MO
阶段状态 In Orbit
所有者/国家 SPXS/US

Most Searched